Voyager Of The Seas — C6SE5 — position and weather

sailwx.info

Track history (hours):
 
Tides and Currents Weather Stations Pressure Air Temp Water Temp Dewpoint Dewpoint Depression Visibility Wind Speed Wind Dir Waves Ship Positions

Voyager Of The Seas

Operator: Royal Caribbean Cruises Ltd

Last reported at 2016-Dec-03 19:33 UTC. Time now 2016-Dec-03 19:39 UTC.
Position S 22°21' E 166°16'.

Type: Passenger vessel. MMSI: 311317000.

Date/timePositionNaut miles runAvg speedWind from/ knotsBaromVisibWave heightAir tempDewpointWater temp
2016-Dec-03 19:33S 22°21' E 166°16'1313.1
2016-Dec-03 18:33S 22°30' E 166°06'  
2016-Nov-30 18:25S 32°30' E 153°19'1213.9
2016-Nov-30 17:33S 32°38' E 153°08'1413.8
2016-Nov-30 16:33S 32°47' E 152°56'1313.1
2016-Nov-30 15:33S 32°56' E 152°44'1312.6
2016-Nov-30 14:33S 33°04' E 152°33'1413.7
2016-Nov-30 13:34S 33°13' E 152°20'4513.5
2016-Nov-30 10:13S 33°43' E 151°40'47 2.4
2016-Nov-29 14:26S 33°12' E 152°22'97219.1
2016-Nov-27 11:25S 22°38' E 166°16'1416.1
2016-Nov-27 10:31S 22°30' E 166°29'9 9.4
2016-Nov-27 09:31S 22°25' E 166°38'  
Track history (hours):
 
Tides and Currents Weather Stations Pressure Air Temp Water Temp Dewpoint Dewpoint Depression Visibility Wind Speed Wind Dir Waves Ship Positions

Voyager Of The Seas

Operator: Royal Caribbean Cruises Ltd

Last reported at 2016-Dec-03 19:33 UTC. Time now 2016-Dec-03 19:39 UTC.
Position S 22°21' E 166°16'.

Type: Passenger vessel. MMSI: 311317000.

Date/timePositionNaut miles runAvg speedWind from/ knotsBaromVisibWave heightAir tempDewpointWater temp
2016-Dec-03 19:33S 22°21' E 166°16'1313.1
2016-Dec-03 18:33S 22°30' E 166°06'  
2016-Nov-30 18:25S 32°30' E 153°19'1213.9
2016-Nov-30 17:33S 32°38' E 153°08'1413.8
2016-Nov-30 16:33S 32°47' E 152°56'1313.1
2016-Nov-30 15:33S 32°56' E 152°44'1312.6
2016-Nov-30 14:33S 33°04' E 152°33'1413.7
2016-Nov-30 13:34S 33°13' E 152°20'4513.5
2016-Nov-30 10:13S 33°43' E 151°40'47 2.4
2016-Nov-29 14:26S 33°12' E 152°22'97219.1
2016-Nov-27 11:25S 22°38' E 166°16'1416.1
2016-Nov-27 10:31S 22°30' E 166°29'9 9.4
2016-Nov-27 09:31S 22°25' E 166°38'  

Dump ship's entire track history